Weather History for KRSL - May, 2013

Change the Weather History Date:

Saturday, May 11, 2013

  Actual Average Record
Temperature  
Mean Temperature 58 °F -  
Max Temperature 66 °F 73 °F 96 °F (1962)
Min Temperature 48 °F 51 °F 31 °F (1979)
Degree Days  
Heating Degree Days 7    
Growing Degree Days 8 (Base 50)    
Moisture  
Dew Point 38 °F    
Average Humidity 53    
Maximum Humidity 89    
Minimum Humidity 24    
Precipitation  
Precipitation 0.00 in - - ()
Sea Level Pressure  
Sea Level Pressure 30.22 in    
Wind  
Wind Speed 11 mph (NNE)    
Max Wind Speed 22 mph    
Max Gust Speed 33 mph    
Visibility 10 miles    
Events      
Averages and records for this station are not official NWS values.
T = Trace of Precipitation, MM = Missing Value Source: NWS Daily Summary

Daily Weather History Graph

Daily Weather History Graph

Search for Another Location

Airport or City:

Trip Planner

Search our weather history database for the weather conditions in past years. The results will help you decide how hot, cold, wet, or windy it might be!

Date:

Astronomy

May. 11, 2013 Rise Set
Actual Time 6:26 AM CDT 8:37 PM CDT
Civil Twilight 5:56 AM CDT 9:07 PM CDT
Nautical Twilight 5:20 AM CDT 9:43 PM CDT
Astronomical Twilight 4:40 AM CDT 10:23 PM CDT
Moon 7:35 AM CDT (5/11) 10:18 PM CDT (5/11)
Length of Visible Light 15h 10m
Length of Day
14h 11m
Waxing Crescent, 3% of the Moon is Illuminated
May 11
Waxing Crescent
May 17
First Quarter
May 24
Full
May 31
Last Quarter
Jun 8
New

Hourly Weather History & Observations

Time (CDT) Temp. Dew Point Humidity Pressure Visibility Wind Dir Wind Speed Gust Speed Precip Events Conditions
12:53 AM 53.1 °F 48.0 °F 83% 30.10 in 10.0 mi SSW 5.8 mph - N/A   Clear
1:53 AM 51.1 °F 48.0 °F 89% 30.10 in 10.0 mi SW 8.1 mph - N/A   Clear
2:53 AM 51.1 °F 48.0 °F 89% 30.09 in 10.0 mi WSW 6.9 mph - N/A   Clear
3:53 AM 50.0 °F 46.9 °F 89% 30.10 in 10.0 mi WNW 9.2 mph - N/A   Clear
4:53 AM 51.1 °F 46.0 °F 83% 30.10 in 10.0 mi NW 9.2 mph - N/A   Clear
5:53 AM 52.0 °F 46.0 °F 80% 30.13 in 10.0 mi NNW 13.8 mph - N/A   Clear
6:53 AM 52.0 °F 44.1 °F 74% 30.18 in 10.0 mi North 11.5 mph - N/A   Clear
7:53 AM 54.0 °F 45.0 °F 72% 30.22 in 10.0 mi North 16.1 mph - N/A   Clear
8:53 AM 57.0 °F 43.0 °F 59% 30.25 in 10.0 mi NNE 21.9 mph 27.6 mph N/A   Clear
9:53 AM 57.0 °F 37.9 °F 49% 30.28 in 10.0 mi NNE 21.9 mph - N/A   Scattered Clouds
10:53 AM 61.0 °F 37.9 °F 42% 30.29 in 10.0 mi NNE 21.9 mph 29.9 mph N/A   Clear
11:53 AM 63.0 °F 37.0 °F 38% 30.31 in 10.0 mi North 21.9 mph 33.4 mph N/A   Clear
12:53 PM 64.0 °F 35.1 °F 34% 30.30 in 10.0 mi NNE 16.1 mph 25.3 mph N/A   Clear
1:53 PM 64.9 °F 30.9 °F 28% 30.30 in 10.0 mi North 16.1 mph 25.3 mph N/A   Clear
2:53 PM 66.0 °F 28.9 °F 25% 30.29 in 10.0 mi North 16.1 mph 25.3 mph N/A   Clear
3:53 PM 66.9 °F 28.9 °F 24% 30.28 in 10.0 mi NNE 13.8 mph 20.7 mph N/A   Clear
4:53 PM 66.9 °F 28.9 °F 24% 30.26 in 10.0 mi North 16.1 mph 23.0 mph N/A   Clear
5:53 PM 66.0 °F 28.0 °F 24% 30.25 in 10.0 mi NNE 11.5 mph - N/A   Clear
6:53 PM 66.0 °F 28.9 °F 25% 30.24 in 10.0 mi NNE 8.1 mph - N/A   Clear
7:53 PM 63.0 °F 30.9 °F 30% 30.23 in 10.0 mi NNE 3.5 mph - N/A   Clear
8:53 PM 57.9 °F 30.9 °F 36% 30.24 in 10.0 mi NE 4.6 mph - N/A   Clear
9:53 PM 51.1 °F 35.1 °F 54% 30.26 in 10.0 mi East 9.2 mph - N/A   Clear
10:53 PM 50.0 °F 36.0 °F 59% 30.27 in 10.0 mi ESE 9.2 mph - N/A   Clear
11:53 PM 48.0 °F 35.1 °F 61% 30.26 in 10.0 mi SE 9.2 mph - N/A   Clear